CW9792 Weather Reports


time (UTC)temp
C
wind
direction
speed
KPH
gust
KPH
rain 1hr
cm
rain 24hr
cm
rain mn
cm
humidity
%
barometer
mb
20260831152018 30 244 0.0 0.0 0.00 0.00 0.00 52 1019.2
20260831151517 29 234 0.0 0.0 0.00 0.00 0.00 53 1019.3
20260831151016 29 216 0.0 0.0 0.00 0.00 0.00 53 1019.3
20260831150516 29 267 0.0 0.0 0.00 0.00 0.00 54 1019.3
20260831150016 29 259 0.0 0.0 0.00 0.00 0.00 53 1019.2
20260831145516 28 225 0.0 0.0 0.00 0.00 0.00 53 1019.3
20260831145014 28 227 0.0 0.0 0.00 0.00 0.00 54 1019.2
20260831144516 28 229 0.0 0.0 0.00 0.00 0.00 54 1019.2
20260831144013 28 257 0.0 0.0 0.00 0.00 0.00 54 1019.2
20260831143512 28 235 0.0 0.0 0.00 0.00 0.00 54 1019.2
20260831143019 28 257 0.0 0.0 0.00 0.00 0.00 54 1019.3
20260831142512 28 236 0.0 0.0 0.00 0.00 0.00 55 1019.2
20260831142009 28 271 0.0 0.0 0.00 0.00 0.00 55 1019.2
20260831141509 28 235 0.0 0.0 0.00 0.00 0.00 55 1019.1
20260831141007 27 218 0.0 0.0 0.00 0.00 0.00 56 1019.1
20260831140506 27 240 0.0 0.0 0.00 0.00 0.00 56 1019.0
20260831140005 27 212 0.0 0.0 0.00 0.00 0.00 56 1019.0
20260831135505 27 177 0.0 0.0 0.00 0.00 0.00 56 1019.0
20260831135003 26 198 0.0 0.0 0.00 0.00 0.00 56 1019.1
20260831134502 26 172 0.0 0.0 0.00 0.00 0.00 57 1019.1
20260831134100 26 205 0.0 0.0 0.00 0.00 0.00 58 1019.1
20260831133559 26 235 0.0 0.0 0.00 0.00 0.00 58 1019.1
20260831133058 25 215 0.0 0.0 0.00 0.00 0.00 59 1019.1
20260831132557 25 186 0.0 0.0 0.00 0.00 0.00 59 1019.0
20260831132056 25 180 0.0 0.0 0.00 0.00 0.00 60 1019.0
20260831131600 25 161 0.0 0.0 0.00 0.00 0.00 60 1019.0
20260831131053 25 178 0.0 0.0 0.00 0.00 0.00 60 1019.0
20260831130552 24 178 0.0 0.0 0.00 0.00 0.00 61 1018.9
20260831130053 24 169 0.0 0.0 0.00 0.00 0.00 61 1018.8
20260831125550 24 174 0.0 0.0 0.00 0.00 0.00 62 1018.8
20260831125052 23 166 0.0 0.0 0.00 0.00 0.00 62 1018.8
20260831124549 23 174 0.0 0.0 0.00 0.00 0.00 63 1018.8
20260831124049 23 178 0.0 0.0 0.00 0.00 0.00 63 1018.8
20260831123546 23 179 0.0 0.0 0.00 0.00 0.00 64 1018.7
20260831123046 22 179 0.0 0.0 0.00 0.00 0.00 64 1018.7
20260831122546 22 180 0.0 0.0 0.00 0.00 0.00 64 1018.6
20260831122046 22 179 0.0 0.0 0.00 0.00 0.00 64 1018.6
20260831121544 22 180 0.0 0.0 0.00 0.00 0.00 65 1018.5
20260831121044 22 180 0.0 0.0 0.00 0.00 0.00 65 1018.5
20260831120543 22 178 0.0 0.0 0.00 0.00 0.00 65 1018.4
20260831120044 22 178 0.0 0.0 0.00 0.00 0.00 65 1018.3
20260831115543 21 178 0.0 0.0 0.00 0.00 0.00 65 1018.4
20260831115043 21 181 0.0 0.0 0.00 0.00 0.00 65 1018.4
20260831114542 21 179 0.0 0.0 0.00 0.00 0.00 65 1018.3
20260831114042 21 179 0.0 0.0 0.00 0.00 0.00 65 1018.2
20260831113542 21 177 0.0 0.0 0.00 0.00 0.00 66 1018.2
20260831113041 21 177 0.0 0.0 0.00 0.00 0.00 66 1018.1
20260831112543 21 177 0.0 0.0 0.00 0.00 0.00 66 1018.1
20260831112039 21 177 0.0 0.0 0.00 0.00 0.00 66 1018.0
20260831111551 21 179 0.0 0.0 0.00 0.00 0.00 65 1017.9
20260831111038 21 179 0.0 0.0 0.00 0.00 0.00 65 1018.0
20260831110538 21 179 0.0 0.0 0.00 0.00 0.00 65 1017.8
20260831110046 21 179 0.0 0.0 0.00 0.00 0.00 65 1017.7
20260831105536 21 180 0.0 0.0 0.00 0.00 0.00 65 1017.7
20260831105036 21 181 0.0 0.0 0.00 0.00 0.00 65 1017.6
20260831104635 21 181 0.0 0.0 0.00 0.00 0.00 65 1017.5
20260831104036 21 181 0.0 0.0 0.00 0.00 0.00 65 1017.5
20260831103535 21 183 0.0 0.0 0.00 0.00 0.00 65 1017.5
20260831103038 21 178 0.0 0.0 0.00 0.00 0.00 65 1017.5
20260831102535 21 178 0.0 0.0 0.00 0.00 0.00 65 1017.5
20260831102034 21 178 0.0 0.0 0.00 0.00 0.00 65 1017.4
20260831101536 21 178 0.0 0.0 0.00 0.00 0.00 65 1017.3
20260831101034 21 178 0.0 0.0 0.00 0.00 0.00 65 1017.3
20260831100537 21 178 0.0 0.0 0.00 0.00 0.00 65 1017.3
20260831100035 21 178 0.0 0.0 0.00 0.00 0.00 65 1017.3
20260831095533 21 177 0.0 0.0 0.00 0.00 0.00 65 1017.1
20260831095035 21 183 0.0 0.0 0.00 0.00 0.00 65 1017.1
20260831094534 21 189 0.0 0.0 0.00 0.00 0.00 65 1017.2
20260831094033 21 185 0.0 0.0 0.00 0.00 0.00 65 1017.2
20260831093533 21 192 0.0 0.0 0.00 0.00 0.00 65 1017.2
20260831093044 21 191 0.0 0.0 0.00 0.00 0.00 65 1017.3
20260831092532 21 185 0.0 0.0 0.00 0.00 0.00 65 1017.3
20260831092033 21 185 0.0 0.0 0.00 0.00 0.00 65 1017.3
20260831091532 21 185 0.0 0.0 0.00 0.00 0.00 65 1017.2
20260831091033 21 185 0.0 0.0 0.00 0.00 0.00 65 1017.3
20260831090531 21 186 0.0 0.0 0.00 0.00 0.00 65 1017.3
20260831090038 21 186 0.0 0.0 0.00 0.00 0.00 65 1017.3
20260831085534 21 186 0.0 0.0 0.00 0.00 0.00 65 1017.3
20260831085131 21 186 0.0 0.0 0.00 0.00 0.00 65 1017.3
20260831084532 21 186 0.0 0.0 0.00 0.00 0.00 64 1017.3
20260831084029 21 186 0.0 0.0 0.00 0.00 0.00 64 1017.1
20260831083529 21 186 0.0 0.0 0.00 0.00 0.00 64 1017.1
20260831083028 21 186 0.0 0.0 0.00 0.00 0.00 64 1017.1
20260831082527 21 186 0.0 0.0 0.00 0.00 0.00 64 1017.0
20260831082030 21 186 0.0 0.0 0.00 0.00 0.00 63 1017.0
20260831081524 22 171 0.0 0.0 0.00 0.00 0.00 63 1017.0
20260831081027 22 188 0.0 0.0 0.00 0.00 0.00 63 1016.9
20260831080526 22 187 0.0 0.0 0.00 0.00 0.00 63 1016.9
20260831080026 22 194 0.0 0.0 0.00 0.00 0.00 63 1016.9
20260831075525 22 194 0.0 0.0 0.00 0.00 0.00 63 1016.9
20260831075024 22 194 0.0 0.0 0.00 0.00 0.00 62 1016.9
20260831074524 22 200 0.0 0.0 0.00 0.00 0.00 62 1016.9
20260831074025 22 200 0.0 0.0 0.00 0.00 0.00 62 1016.9
20260831073524 22 200 0.0 0.0 0.00 0.00 0.00 62 1016.9
20260831073024 22 199 0.0 0.0 0.00 0.00 0.00 63 1016.9
20260831072526 22 213 0.0 0.0 0.00 0.00 0.00 63 1017.0
20260831072022 22 201 0.0 0.0 0.00 0.00 0.00 63 1017.0
20260831071528 22 196 0.0 0.0 0.00 0.00 0.00 63 1017.1
20260831071021 22 194 0.0 0.0 0.00 0.00 0.00 63 1017.1
20260831070522 22 187 0.0 0.0 0.00 0.00 0.00 63 1017.1
20260831070024 22 200 0.0 0.0 0.00 0.00 0.00 62 1017.2
20260831065526 22 200 0.0 0.0 0.00 0.00 0.00 62 1017.1
20260831065018 22 200 0.0 0.0 0.00 0.00 0.00 62 1017.1
20260831064519 22 200 0.0 0.0 0.00 0.00 0.00 62 1017.1
20260831064018 22 202 0.0 0.0 0.00 0.00 0.00 62 1017.2
20260831063518 22 202 0.0 0.0 0.00 0.00 0.00 61 1017.2
20260831063019 22 205 0.0 0.0 0.00 0.00 0.00 61 1017.2
20260831062518 22 205 0.0 0.0 0.00 0.00 0.00 61 1017.3
20260831062021 22 205 0.0 0.0 0.00 0.00 0.00 61 1017.3
20260831061518 22 204 0.0 0.0 0.00 0.00 0.00 62 1017.3
20260831061017 22 204 0.0 0.0 0.00 0.00 0.00 61 1017.3
20260831060518 22 204 0.0 0.0 0.00 0.00 0.00 61 1017.3
20260831060017 22 205 0.0 0.0 0.00 0.00 0.00 61 1017.3
20260831055517 22 205 0.0 0.0 0.00 0.00 0.00 61 1017.3
20260831055016 23 207 0.0 0.0 0.00 0.00 0.00 60 1017.2
20260831054517 23 207 0.0 0.0 0.00 0.00 0.00 60 1017.3
20260831054018 23 207 0.0 0.0 0.00 0.00 0.00 59 1017.3
20260831053517 23 207 0.0 0.0 0.00 0.00 0.00 59 1017.3
20260831053021 23 207 0.0 0.0 0.00 0.00 0.00 59 1017.3
20260831052517 23 209 0.0 0.0 0.00 0.00 0.00 59 1017.3
20260831052018 23 209 0.0 0.0 0.00 0.00 0.00 60 1017.3
20260831051516 23 210 0.0 0.0 0.00 0.00 0.00 60 1017.4
20260831051015 23 210 0.0 0.0 0.00 0.00 0.00 60 1017.4
20260831050515 23 210 0.0 0.0 0.00 0.00 0.00 59 1017.4
20260831050017 23 210 0.0 0.0 0.00 0.00 0.00 59 1017.4
20260831045515 23 210 0.0 0.0 0.00 0.00 0.00 59 1017.3
20260831045013 23 210 0.0 0.0 0.00 0.00 0.00 59 1017.3
20260831044513 23 210 0.0 0.0 0.00 0.00 0.00 59 1017.3
20260831044012 23 210 0.0 0.0 0.00 0.00 0.00 59 1017.2
20260831043511 23 224 0.0 0.0 0.00 0.00 0.00 59 1017.2
20260831043010 23 224 0.0 0.0 0.00 0.00 0.00 59 1017.2
20260831042510 23 224 0.0 0.0 0.00 0.00 0.00 60 1017.2
20260831042009 23 224 0.0 0.0 0.00 0.00 0.00 61 1017.2
20260831041507 22 228 0.0 0.0 0.00 0.00 0.00 62 1017.2
20260831041006 22 228 0.0 0.0 0.00 0.00 0.00 62 1017.1
20260831040506 22 228 0.0 0.0 0.00 0.00 0.00 63 1017.2
20260831040005 22 229 0.0 0.0 0.00 0.00 0.00 63 1017.2
20260831035504 22 231 0.0 0.0 0.00 0.00 0.00 63 1017.3
20260831035003 22 231 0.0 0.0 0.00 0.00 0.00 63 1017.2
20260831034504 22 231 0.0 0.0 0.00 0.00 0.00 63 1017.2
20260831034004 22 231 0.0 0.0 0.00 0.00 0.00 63 1017.2
20260831033504 22 231 0.0 0.0 0.00 0.00 0.00 63 1017.3
20260831033008 23 231 0.0 0.0 0.00 0.00 0.00 63 1017.4
20260831032504 23 231 0.0 0.0 0.00 0.00 0.00 63 1017.4
20260831032004 23 231 0.0 0.0 0.00 0.00 0.00 63 1017.3
20260831031511 23 231 0.0 0.0 0.00 0.00 0.00 63 1017.3
20260831031002 23 231 0.0 0.0 0.00 0.00 0.00 63 1017.3
20260831030502 23 231 0.0 0.0 0.00 0.00 0.00 63 1017.3
20260831030003 23 231 0.0 0.0 0.00 0.00 0.00 63 1017.3
20260831025502 23 231 0.0 0.0 0.00 0.00 0.00 63 1017.2
20260831025002 23 231 0.0 0.0 0.00 0.00 0.00 63 1017.2
20260831024502 23 231 0.0 0.0 0.00 0.00 0.00 63 1017.1
20260831024003 23 231 0.0 0.0 0.00 0.00 0.00 63 1017.1
20260831023503 23 231 0.0 0.0 0.00 0.00 0.00 63 1017.0
20260831023001 23 231 0.0 0.0 0.00 0.00 0.00 63 1017.0
20260831022501 23 231 0.0 0.0 0.00 0.00 0.00 62 1017.1
20260831022002 23 231 0.0 0.0 0.00 0.00 0.00 62 1017.1
20260831021503 23 231 0.0 0.0 0.00 0.00 0.00 62 1017.1
20260831021101 23 231 0.0 0.0 0.00 0.00 0.00 62 1017.1
20260831021002 23 231 0.0 0.0 0.00 0.00 0.00 62 1017.1
20260831020602 23 231 0.0 0.0 0.00 0.00 0.00 63 1017.0
20260831015600 24 231 0.0 0.0 0.00 0.00 0.00 63 1017.0
20260831015101 24 231 0.0 0.0 0.00 0.00 0.00 63 1017.0
20260831014600 24 231 0.0 0.0 0.00 0.00 0.00 62 1016.9
20260831014101 24 231 0.0 0.0 0.00 0.00 0.00 62 1016.9
20260831013559 25 231 0.0 0.0 0.00 0.00 0.00 62 1016.8
20260831013100 25 231 0.0 0.0 0.00 0.00 0.00 62 1016.8
20260831012559 25 231 0.0 0.0 0.00 0.00 0.00 62 1016.6
20260831012100 25 231 0.0 0.0 0.00 0.00 0.00 61 1016.7
20260831011558 25 231 0.0 0.0 0.00 0.00 0.00 61 1016.6
20260831011058 25 231 0.0 0.0 0.00 0.00 0.00 60 1016.5
20260831010558 25 231 0.0 0.0 0.00 0.00 0.00 60 1016.4
20260831010058 26 231 0.0 0.0 0.00 0.00 0.00 60 1016.4
20260831005558 26 231 0.0 0.0 0.00 0.00 0.00 60 1016.3
20260831005102 26 231 0.0 0.0 0.00 0.00 0.00 60 1016.3
20260831004557 26 231 0.0 0.0 0.00 0.00 0.00 59 1016.3
20260831004101 27 232 0.0 0.0 0.00 0.00 0.00 58 1016.3
20260831003558 27 232 0.0 0.0 0.00 0.00 0.00 57 1016.3
20260831003101 27 232 0.0 0.0 0.00 0.00 0.00 56 1016.3
20260831002557 27 232 0.0 0.0 0.00 0.00 0.00 55 1016.3
20260831002056 27 232 0.0 0.0 0.00 0.00 0.00 55 1016.3
20260831001602 28 232 0.0 0.0 0.00 0.00 0.00 54 1016.3
20260831001056 28 232 0.0 0.0 0.00 0.00 0.00 53 1016.3
20260831000556 28 232 0.0 0.0 0.00 0.00 0.00 53 1016.2
20260831000059 29 232 0.0 0.0 0.00 0.00 0.00 53 1016.3
20260830235558 30 232 0.0 0.0 0.00 0.00 0.00 50 1016.3
20260830235056 30 232 0.0 0.0 0.00 0.00 0.00 49 1016.3
20260830234602 30 232 0.0 0.0 0.00 0.00 0.00 49 1016.3
20260830234054 31 232 0.0 0.0 0.00 0.00 0.00 48 1016.3
20260830233559 31 232 0.0 0.0 0.00 0.00 0.00 48 1016.3
20260830233055 31 232 0.0 0.0 0.00 0.00 0.00 45 1016.2
20260830232558 31 232 0.0 0.0 0.00 0.00 0.00 44 1016.3
20260830232056 31 232 0.0 0.0 0.00 0.00 0.00 42 1016.3
20260830231554 32 232 0.0 0.0 0.00 0.00 0.00 40 1016.4
20260830231053 32 232 0.0 0.0 0.00 0.00 0.00 41 1016.4
20260830230553 32 232 0.0 0.0 0.00 0.00 0.00 40 1016.4
20260830230053 32 232 0.0 0.0 0.00 0.00 0.00 37 1016.4
20260830225552 32 232 0.0 0.0 0.00 0.00 0.00 37 1016.2
20260830225053 32 232 0.0 0.0 0.00 0.00 0.00 36 1016.3
20260830224555 32 232 0.0 0.0 0.00 0.00 0.00 37 1016.3
20260830224053 32 232 0.0 0.0 0.00 0.00 0.00 36 1016.3
20260830223552 32 230 0.0 1.6 0.00 0.00 0.00 36 1016.3
20260830223052 32 227 0.0 1.6 0.00 0.00 0.00 35 1016.3
20260830222553 32 275 0.0 0.0 0.00 0.00 0.00 37 1016.3
20260830222055 32 243 0.0 0.0 0.00 0.00 0.00 35 1016.4
20260830221551 32 243 0.0 0.0 0.00 0.00 0.00 34 1016.4
20260830221055 32 294 0.0 0.0 0.00 0.00 0.00 36 1016.4
20260830220550 33 294 0.0 0.0 0.00 0.00 0.00 35 1016.4
20260830220056 33 263 0.0 0.0 0.00 0.00 0.00 35 1016.5
20260830215549 33 263 0.0 0.0 0.00 0.00 0.00 36 1016.6
20260830215048 33 265 0.0 0.0 0.00 0.00 0.00 35 1016.6
20260830214607 32 267 0.0 0.0 0.00 0.00 0.00 37 1016.6
20260830214047 32 280 0.0 0.0 0.00 0.00 0.00 36 1016.6
20260830213547 32 280 0.0 0.0 0.00 0.00 0.00 35 1016.8
20260830213047 33 257 0.0 0.0 0.00 0.00 0.00 34 1016.7
20260830212547 33 263 0.0 0.0 0.00 0.00 0.00 36 1016.8
20260830212046 32 273 0.0 0.0 0.00 0.00 0.00 36 1016.8
20260830211553 32 272 0.0 0.0 0.00 0.00 0.00 36 1016.8
20260830211046 32 260 0.0 0.0 0.00 0.00 0.00 36 1016.8
20260830210547 32 269 0.0 0.0 0.00 0.00 0.00 36 1016.8
20260830210050 32 292 0.0 0.0 0.00 0.00 0.00 37 1016.7
20260830205544 32 279 0.0 0.0 0.00 0.00 0.00 35 1016.8
20260830205044 33 299 0.0 1.6 0.00 0.00 0.00 35 1016.8
20260830204543 33 263 0.0 1.6 0.00 0.00 0.00 36 1017.0
20260830204043 33 252 0.0 0.0 0.00 0.00 0.00 36 1017.0
20260830203545 32 276 0.0 0.0 0.00 0.00 0.00 37 1017.1
20260830203050 32 230 0.0 0.0 0.00 0.00 0.00 36 1017.1
20260830202543 32 271 0.0 0.0 0.00 0.00 0.00 37 1017.1
20260830202042 32 265 0.0 0.0 0.00 0.00 0.00 37 1017.1
20260830201541 33 202 0.0 0.0 0.00 0.00 0.00 38 1017.2
20260830201040 33 294 0.0 0.0 0.00 0.00 0.00 36 1017.3
20260830200539 33 213 0.0 1.6 0.00 0.00 0.00 36 1017.3
20260830200039 33 186 0.0 1.6 0.00 0.00 0.00 35 1017.3
20260830195542 32 237 0.0 0.0 0.00 0.00 0.00 37 1017.3
20260830195038 32 281 0.0 0.0 0.00 0.00 0.00 36 1017.3
20260830194538 32 211 0.0 0.0 0.00 0.00 0.00 36 1017.3
20260830194037 32 203 0.0 0.0 0.00 0.00 0.00 36 1017.4
20260830193538 32 169 0.0 0.0 0.00 0.00 0.00 37 1017.5
20260830193043 32 168 0.0 0.0 0.00 0.00 0.00 37 1017.4
20260830192536 32 153 0.0 1.6 0.00 0.00 0.00 38 1017.5
20260830192033 32 190 0.0 0.0 0.00 0.00 0.00 38 1017.7
20260830191534 32 246 0.0 3.2 0.00 0.00 0.00 38 1017.9
20260830191034 32 211 0.0 3.2 0.00 0.00 0.00 38 1017.9
20260830190531 32 246 0.0 8.0 0.00 0.00 0.00 40 1018.0
20260830190036 32 236 0.0 8.0 0.00 0.00 0.00 39 1018.2
20260830185531 31 289 0.0 0.0 0.00 0.00 0.00 39 1018.2
20260830185030 31 265 0.0 0.0 0.00 0.00 0.00 38 1018.3
20260830184533 32 257 0.0 0.0 0.00 0.00 0.00 37 1018.3
20260830184030 32 219 0.0 0.0 0.00 0.00 0.00 36 1018.4
20260830183529 32 217 0.0 0.0 0.00 0.00 0.00 38 1018.5
20260830183029 31 277 0.0 0.0 0.00 0.00 0.00 37 1018.5
20260830182529 31 252 0.0 4.8 0.00 0.00 0.00 39 1018.6
20260830182029 31 211 0.0 4.8 0.00 0.00 0.00 37 1018.7
20260830181529 31 248 0.0 0.0 0.00 0.00 0.00 41 1018.7
20260830181028 31 240 0.0 0.0 0.00 0.00 0.00 41 1018.8
20260830180531 31 251 0.0 0.0 0.00 0.00 0.00 40 1018.8
20260830180031 32 207 0.0 1.6 0.00 0.00 0.00 40 1018.8
20260830175526 31 267 0.0 0.0 0.00 0.00 0.00 45 1018.9
20260830175026 31 268 0.0 0.0 0.00 0.00 0.00 44 1018.9
20260830174528 31 263 0.0 0.0 0.00 0.00 0.00 43 1019.0
20260830174026 30 240 0.0 0.0 0.00 0.00 0.00 46 1018.9
20260830173525 30 243 0.0 0.0 0.00 0.00 0.00 45 1019.0
20260830173041 30 195 0.0 0.0 0.00 0.00 0.00 46 1019.0
20260830172530 30 219 0.0 0.0 0.00 0.00 0.00 45 1018.9
20260830172026 31 219 0.0 0.0 0.00 0.00 0.00 44 1019.0
20260830171528 31 236 0.0 0.0 0.00 0.00 0.00 47 1019.0
20260830171023 31 238 0.0 0.0 0.00 0.00 0.00 48 1019.0
20260830170523 31 202 0.0 0.0 0.00 0.00 0.00 46 1019.1
20260830170027 31 219 0.0 0.0 0.00 0.00 0.00 48 1019.1
20260830165526 30 211 0.0 0.0 0.00 0.00 0.00 48 1019.1
20260830165022 31 210 0.0 0.0 0.00 0.00 0.00 47 1019.1
20260830164522 30 185 0.0 0.0 0.00 0.00 0.00 47 1019.1
20260830164021 31 186 0.0 0.0 0.00 0.00 0.00 47 1019.1
20260830163521 31 203 0.0 0.0 0.00 0.00 0.00 47 1019.3
20260830163031 31 239 0.0 0.0 0.00 0.00 0.00 48 1019.3
20260830162520 30 205 0.0 0.0 0.00 0.00 0.00 48 1019.3
20260830162020 30 228 0.0 0.0 0.00 0.00 0.00 47 1019.4
20260830161519 30 202 0.0 0.0 0.00 0.00 0.00 48 1019.5
20260830161019 30 200 0.0 0.0 0.00 0.00 0.00 49 1019.5
20260830160518 30 189 0.0 0.0 0.00 0.00 0.00 49 1019.4
20260830160018 30 204 0.0 0.0 0.00 0.00 0.00 48 1019.4
20260830155518 30 203 0.0 0.0 0.00 0.00 0.00 48 1019.4
20260830155017 30 176 0.0 0.0 0.00 0.00 0.00 48 1019.5
20260830154519 30 194 0.0 0.0 0.00 0.00 0.00 49 1019.6
20260830154015 30 178 0.0 0.0 0.00 0.00 0.00 48 1019.5
20260830153517 30 187 0.0 1.6 0.00 0.00 0.00 49 1019.5
20260830153014 29 203 0.0 1.6 0.00 0.00 0.00 51 1019.5
20260830152511 29 288 0.0 0.0 0.00 0.00 0.00 50 1019.6